{"data":{"norad_id":39500,"intl_designator":"2014-002A","name":"THAICOM 6","alt_names":[],"object_type":"PAYLOAD","status":"ACTIVE","operator":null,"country":"THAI","launch_date":"2014-01-06","launch_site_code":"AFETR","launch_vehicle":null,"mission":null,"orbit_class":"UNKNOWN","rcs_meters":12.5893,"size_class":null,"mass_kg":null,"dimensions":null,"purposes":["comms"],"wikipedia_slug":null,"has_3d_model":false,"image_url":null,"decayed_at":null,"tle_current":{"epoch":"2026-05-25T02:24:23.005728Z","epoch_age_seconds":73267,"freshness":"FRESH","line1":"1 39500U 14002A   26145.10026627 -.00000124  00000+0  00000+0 0  9992","line2":"2 39500   0.0799 104.8001 0004183 348.3819 264.1432  1.00271883 45225","mean_motion":1.00271883,"eccentricity":0.0004183,"inclination_deg":0.0799,"raan_deg":104.8001,"arg_perigee_deg":348.3819,"mean_anomaly_deg":264.1432,"bstar":0,"rev_number":4522,"period_min":1436.0955004705,"perigee_km":35768.929992368,"apogee_km":35804.204984143,"semimajor_km":42164.704488256,"source":"CELESTRAK","updated_at":"2026-05-25T13:38:13.947882Z"}}}